Weather History for Pendleton, OR

Change the Weather History Date:

Saturday, December 1, 2012

  Actual Average Record
Temperature  
Mean Temperature 52 °F 36 °F  
Max Temperature 57 °F 42 °F 66 °F (1926)
Min Temperature 47 °F 29 °F -6 °F (1985)
Degree Days  
Heating Degree Days 13 29  
Month to date heating degree days 13 29  
Since 1 July heating degree days 1158 1282  
Cooling Degree Days 0 0  
Month to date cooling degree days 0 0  
Year to date cooling degree days 611 636  
Moisture  
Dew Point 40 °F    
Average Humidity 59    
Maximum Humidity 71    
Minimum Humidity 47    
Precipitation  
Precipitation 0.00 in 0.05 in 0.53 in (1896)
Month to date precipitation 0.00 0.05  
Year to date precipitation 13.25 11.24  
Snow  
Snow 0.00 in 0.10 in 1.90 in (1992)
Month to date snowfall 0.0 0.1  
Year to date snowfall 5.9 9.3  
Since 1 July snowfall T 1.6  
Snow Depth 0.00 in    
Sea Level Pressure  
Sea Level Pressure 29.62 in    
Wind  
Wind Speed 13 mph (East)    
Max Wind Speed 30 mph    
Max Gust Speed 37 mph    
Visibility 9 miles    
Events Rain    
T = Trace of Precipitation, MM = Missing Value Source: NWS Daily Summary

Daily Weather History Graph

Daily Weather History Graph

Search for Another Location

Airport:

Trip Planner

Search our weather history database for the weather conditions in past years. The results will help you decide how hot, cold, wet, or windy it might be!

Date:

Astronomy

Dec. 01, 2012 Rise Set
Actual Time 7:16 AM PST 4:12 PM PST
Civil Twilight 6:42 AM PST 4:46 PM PST
Nautical Twilight 6:05 AM PST 5:23 PM PST
Astronomical Twilight 5:29 AM PST 5:59 PM PST
Moon 7:10 PM PST (12/1) 9:30 AM PST (12/1)
Length of Visible Light 10h 03m
Length of Day
8h 56m
Waning Gibbous, 91% of the Moon is Illuminated
Dec 1
Waning Gibbous
Dec 6
Last Quarter
Dec 13
New
Dec 19
First Quarter
Dec 28
Full

Hourly Weather History & Observations

Time (PST) Temp. Windchill Dew Point Humidity Pressure Visibility Wind Dir Wind Speed Gust Speed Precip Events Conditions
12:53 AM 55.0 °F - 37.0 °F 51% 29.52 in 10.0 mi South 12.7 mph 23.0 mph N/A   Mostly Cloudy
1:53 AM 55.9 °F - 37.0 °F 49% 29.53 in 10.0 mi South 15.0 mph 19.6 mph N/A   Clear
2:53 AM 55.0 °F - 36.0 °F 49% 29.53 in 10.0 mi South 13.8 mph - N/A   Partly Cloudy
3:53 AM 55.4 °F - 35.6 °F 47% 29.55 in 10.0 mi South 12.7 mph - N/A   Overcast
4:53 AM 51.1 °F - 37.9 °F 61% 29.57 in 10.0 mi West 5.8 mph - N/A   Overcast
5:53 AM 50.0 °F - 39.9 °F 68% 29.60 in 10.0 mi WSW 24.2 mph 35.7 mph N/A   Overcast
6:53 AM 53.6 °F - 39.2 °F 58% 29.63 in 10.0 mi SSW 21.9 mph 36.8 mph N/A   Overcast
7:53 AM 50.0 °F - 39.9 °F 68% 29.65 in 10.0 mi SW 12.7 mph - N/A   Overcast
8:53 AM 50.0 °F - 37.9 °F 63% 29.69 in 10.0 mi West 19.6 mph 26.5 mph N/A   Mostly Cloudy
9:53 AM 48.0 °F - 39.9 °F 74% 29.73 in 10.0 mi WNW 11.5 mph - N/A   Mostly Cloudy
10:53 AM 50.0 °F - 41.0 °F 71% 29.76 in 10.0 mi NW 12.7 mph - N/A   Scattered Clouds
11:53 AM 52.0 °F - 39.0 °F 61% 29.72 in 10.0 mi West 12.7 mph - N/A   Clear
12:53 PM 52.0 °F - 39.9 °F 63% 29.71 in 10.0 mi NNE 3.5 mph - N/A   Mostly Cloudy
1:53 PM 52.0 °F - 39.9 °F 63% 29.68 in 10.0 mi East 3.5 mph - N/A   Mostly Cloudy
2:53 PM 51.1 °F - 42.1 °F 71% 29.65 in 10.0 mi ENE 6.9 mph - N/A   Overcast
3:53 PM 48.9 °F - 41.0 °F 74% 29.66 in 10.0 mi NE 8.1 mph - N/A   Overcast
4:53 PM 51.1 °F - 39.0 °F 63% 29.64 in 10.0 mi Calm Calm - 0.00 in Rain Light Rain
5:53 PM 46.9 °F - 42.1 °F 83% 29.64 in 7.0 mi North 5.8 mph - 0.02 in Rain Light Rain
6:53 PM 45.0 °F 40.6 °F 43.0 °F 93% 29.63 in 5.0 mi ENE 8.1 mph - 0.07 in Rain Light Rain
7:53 PM 45.0 °F 39.7 °F 43.0 °F 93% 29.60 in 10.0 mi East 10.4 mph - 0.01 in Rain Light Rain
8:53 PM 45.0 °F 42.6 °F 44.1 °F 97% 29.58 in 6.0 mi NE 4.6 mph - 0.08 in Rain Light Rain
9:53 PM 45.0 °F 38.9 °F 44.1 °F 97% 29.52 in 10.0 mi East 12.7 mph - 0.03 in   Scattered Clouds
10:53 PM 45.0 °F 40.1 °F 44.1 °F 97% 29.50 in 4.0 mi ENE 9.2 mph - 0.04 in Rain Rain
11:53 PM 45.0 °F 39.7 °F 44.1 °F 97% 29.43 in 6.0 mi East 10.4 mph - 0.10 in Rain Light Rain